Regional Weather Roundup
Issued by NWS

Home | Current Version | Previous Version | Graphics & Text | Print | Product List | Glossary On
Versions: 1 2 3 4 5 6 7 8 9 10 11 12 13 14 15 16 17 18 19 20 21 22 23 24 25 26 27 28 29 30 31 32 33 34 35 36 37 38 39 40 41 42 43 44 45 46 47 48 49 50
000
ASUS43 KLOT 221606
RWRIL

ILLINOIS REGIONAL WEATHER ROUNDUP
NATIONAL WEATHER SERVICE CHICAGO/ROMEOVILLE IL
1000 AM CST SAT NOV 22 2014

NOTE: "FAIR" INDICATES FEW OR NO CLOUDS BELOW 12,000 FEET WITH NO
SIGNIFICANT WEATHER AND/OR OBSTRUCTIONS TO VISIBILITY.

* THESE STATIONS ARE NOT UNDER NWS QUALITY CONTROL. THEY ALSO MAY NOT
  REPORT WEATHER SUCH AS PRECIPITATION OR FOG.

ILZ001-002-007-009-015-016-024-221700-
NORTHWEST ILLINOIS

CITY           SKY/WX    TMP DP  RH WIND       PRES   REMARKS
MOLINE         CLOUDY    48  44  86 S12       29.93F
STERLING*      CLOUDY    43  39  87 S5        29.94F
SAVANNA*       FOG       42  41  95 S8        29.92F VSB 1
$$

ILZ003-004-008-010-011-017-018-221700-
NORTH CENTRAL ILLINOIS

CITY           SKY/WX    TMP DP  RH WIND       PRES   REMARKS
ROCKFORD       FOG       40  39  97 S8        29.96F VSB 1/2
FREEPORT*      FOG       40  39  99 S14       29.94F VSB 3/4
ROCHELLE*      FOG       39  39 100 S10       29.96F VSB 1   WCI  33
DE KALB*       FOG       38  37  99 S10       29.97F VSB 1/4 WCI  30
PERU*          CLOUDY    45  41  87 S13       29.99S
$$

ILZ005-006-012>014-019>023-221700-
NORTHEAST ILLINOIS

CITY           SKY/WX    TMP DP  RH WIND       PRES   REMARKS
CHICAGO-OHARE  CLOUDY    39  37  92 S10       29.99S FOG     WCI  32
CHICAGO-MIDWAY CLOUDY    41  37  86 S10G18    30.00F
AURORA         CLOUDY    41  37  86 S12       29.99F FOG
LANSING*       CLOUDY    40  37  89 SW9       30.03F
JOLIET*        CLOUDY    41  36  84 S9        30.01F
WAUKEGAN       CLOUDY    39  37  92 S12       29.96F FOG     WCI  32
DUPAGE AIRPORT CLOUDY    39  38  96 S9        29.98F FOG     WCI  33
KANKAKEE*      CLOUDY    43  40  86 S17       30.03F
WHEELING       CLOUDY    39  37  92 S10       30.00F FOG     WCI  32
MORRIS*        CLOUDY    42  39  89 S10       29.99F
ROMEOVILLE*    CLOUDY    41  37  85 SW14      30.00F
NORTHERLY ISL    N/A     40  35  83 SW12        N/A
$$

LMZ740>746-221700-
SOUTHERN LAKE MICHIGAN

STATION/POSITION SKY/WX   TEMP    WIND        PRES    VSBY  WAVE
                          AIR SEA DIR/SP/G                  HT/PER
                          (F)     (DEG/KT/KT) (MB)    (MI)  (FT/S)
SOUTHERN BUOY              41 43  210/ 19/ 23 1015.6F         5/ 6
WAUKEGAN HARBOR            39     210/  9/ 13   N/A
HARRISON CRIB              39     190/ 18/ 22   N/A
BURNHAM HARBOR             41     190/ 11/ 13   N/A
CALUMET HARBOR             40     180/  9/ 12 1015.2F
MICHIGAN CITY              40     170/ 14/ 18   N/A
$$

ILZ025>027-034>036-040-047-049-050-058-095>099-221700-
WEST-CENTRAL ILLINOIS

CITY           SKY/WX    TMP DP  RH WIND       PRES   REMARKS
QUINCY         CLOUDY    53  46  77 SW18      30.00S
GALESBURG*     CLOUDY    48  43  81 S14G21    29.96F
MACOMB*        CLOUDY    49  43  82 S12       30.00S
JACKSONVILLE*  CLOUDY    54  45  70 S13       30.03S
PITTSFIELD*    CLOUDY    53  45  73 S14       30.03S
$$

ILZ028>032-037-038-041>044-048-051>054-059>061-221700-
CENTRAL ILLINOIS

CITY           SKY/WX    TMP DP  RH WIND       PRES   REMARKS
PONTIAC        CLOUDY    45  41  85 S14       30.03S
BLOOMINGTON    CLOUDY    46  42  86 S17       30.04F
DECATUR        CLOUDY    52  44  74 S18       30.08S
PEORIA         CLOUDY    47  40  76 S13       30.01F
LACON*         CLOUDY    46  39  77 S12       29.99F
LINCOLN*       PTSUNNY   50  43  74 S8        30.03F
SPRINGFIELD    CLOUDY    53  44  71 S18G26    30.05F
TAYLORVILLE    CLOUDY    50  43  76 S13       30.07S
$$

ILZ033-039-045-046-055>057-062-063-221700-
EAST-CENTRAL ILLINOIS

CITY           SKY/WX    TMP DP  RH WIND       PRES   REMARKS
CHAMPAIGN      CLOUDY    47  42  83 S17       30.07F
DANVILLE*      CLOUDY    46  40  79 SW18      30.06S
RANTOUL*       CLOUDY    49  44  82 SW16      30.06F
MATTOON        CLOUDY    49  40  71 S16G24    30.10F
PARIS*         CLOUDY    50  42  75 S21G28    30.12F
$$

ILZ079-100>102-221700-
SOUTHWEST ILLINOIS

CITY           SKY/WX    TMP DP  RH WIND       PRES   REMARKS
ALTON          CLOUDY    54  45  71 S15G21    30.10S
BELLEVILLE     CLOUDY    56  47  74 S16G22    30.10F
CAHOKIA*       CLOUDY    58  46  64 S13G22    30.10F
SPARTA*        CLOUDY    53  46  76 S16       30.15F
$$

ILZ064>066-069>071-074>076-080>082-084>086-088>090-092>094-221700-
SOUTH-CENTRAL ILLINOIS

CITY           SKY/WX    TMP DP  RH WIND       PRES   REMARKS
CARBONDALE     CLOUDY    60  46  59 S20G26    30.18F
CAIRO*         CLOUDY    56  45  66 S12       30.23S
EFFINGHAM*     CLOUDY    52  41  65 S9G17     30.13F
MARION         PTSUNNY   55  48  76 S17       30.20F
MT. VERNON     CLOUDY    55  45  67 S16G23    30.18S
CENTRALIA*     CLOUDY    54  45  70 S20       30.14F
SALEM*           N/A     56  47  71 S16G24    30.14S
METROPOLIS*    LGT RAIN  58  43  57 S12       30.23S
$$

ILZ067-068-072-073-078-083-087-091-221700-
SOUTHEAST ILLINOIS

CITY           SKY/WX    TMP DP  RH WIND       PRES   REMARKS
LAWRENCEVILLE  CLOUDY    57  43  59 S21G28    30.17F
FLORA*         PTSUNNY   56  44  64 SW17G24   30.16S
FAIRFIELD*     PTSUNNY   57  45  64 S14G21    30.17S
HARRISBURG*    LGT RAIN  55  44  64 S14G20    30.22S
ROBINSON*      CLOUDY    53  42  66 S12       30.17F
CARMI*         CLOUDY    60  45  59 S16G24    30.20F
$$

ABBREVIATIONS USED IN REMARKS
   TC - TEMPERATURE IN CELSIUS
  WCI - WIND CHILL INDEX
   HX - HEAT INDEX
  VSB - VISIBILITY
$$



USA.gov is the U.S. government's official web portal to all federal, state and local government web resources and services.